EA1QW Weather Reports


Display with metric or nautical units.
time (UTC)temp
F
wind
direction
speed
MPH
gust
MPH
rain 1hr
in
rain 24hr
in
rain mn
in
humidity
%
barometer
mb
20260506023541 52 238 0.0 0.0 0.04 0.31 0.01 95 1013.2
20260506023028 52 238 0.0 0.0 0.04 0.31 0.01 95 1013.2
20260506022516 52 238 0.0 0.0 0.04 0.31 0.01 95 1013.2
20260506022021 52 238 0.0 3.0 0.00 0.28 0.00 95 1013.2
20260506021528 52 238 0.0 3.0 0.00 0.28 0.00 95 1013.2
20260506021015 52 238 1.0 3.0 0.00 0.28 0.00 94 1013.4
20260506020524 52 238 0.0 2.0 0.00 0.28 0.00 94 1013.3
20260506020011 52 238 0.0 3.0 0.00 0.28 0.00 94 1013.3
20260506015519 52 238 1.0 4.0 0.00 0.28 0.00 94 1013.3
20260506015027 52 238 2.0 4.0 0.00 0.28 0.00 94 1013.3
20260506014516 52 238 0.0 3.0 0.00 0.28 0.00 94 1013.4
20260506014021 52 238 0.0 3.0 0.00 0.28 0.00 94 1013.3
20260506013529 52 238 0.0 3.0 0.00 0.28 0.00 94 1013.3
20260506013016 52 238 1.0 4.0 0.00 0.28 0.00 94 1013.3
20260506012524 52 238 1.0 4.0 0.00 0.28 0.00 94 1013.3
20260506012011 52 238 0.0 4.0 0.00 0.28 0.00 94 1013.4
20260506011520 52 238 1.0 4.0 0.00 0.28 0.00 94 1013.5
20260506011028 52 238 0.0 3.0 0.00 0.28 0.00 94 1013.5
20260506010537 52 238 0.0 3.0 0.00 0.28 0.00 94 1013.7
20260506010025 53 238 1.0 3.0 0.00 0.28 0.00 94 1013.8
20260506005513 53 238 0.0 4.0 0.00 0.28 0.00 94 1013.9
20260506005021 53 239 1.0 4.0 0.00 0.28 0.00 94 1013.9
20260506004529 53 238 0.0 4.0 0.00 0.28 0.00 94 1013.9
20260506004016 53 238 1.0 4.0 0.00 0.28 0.00 94 1014.0
20260506003522 53 238 1.0 4.0 0.00 0.28 0.00 94 1014.0
20260506003051 53 239 2.0 7.0 0.00 0.28 0.00 94 1014.0
20260506002518 53 239 2.0 7.0 0.00 0.28 0.00 94 1014.1
20260506002046 53 240 1.0 5.0 0.00 0.28 0.00 94 1014.0
20260506001533 53 240 1.0 4.0 0.00 0.28 0.00 94 1014.0
20260506001016 53 240 0.0 5.0 0.00 0.28 0.00 94 1014.0
20260506000524 53 240 0.0 5.0 0.00 0.28 0.00 94 1014.0
20260506000012 53 242 2.0 5.0 0.00 0.28 0.06 94 1014.1
20260505235519 53 242 1.0 5.0 0.00 0.28 0.06 93 1014.0
20260505235027 53 242 1.0 4.0 0.00 0.28 0.06 93 1014.1
20260505234535 53 242 0.0 4.0 0.00 0.28 0.06 93 1014.1
20260505234022 54 242 0.0 0.0 0.00 0.28 0.06 93 1014.2
20260505233510 54 242 0.0 0.0 0.00 0.28 0.06 93 1014.2
20260505233017 54 242 0.0 1.0 0.00 0.28 0.06 93 1014.1
20260505232544 54 242 0.0 1.0 0.04 0.28 0.06 93 1014.1
20260505232032 54 242 0.0 4.0 0.04 0.28 0.06 93 1014.1
20260505231519 54 242 1.0 4.0 0.04 0.28 0.06 93 1014.2
20260505231048 54 243 0.0 4.0 0.04 0.28 0.06 93 1014.2
20260505230515 54 243 1.0 5.0 0.04 0.28 0.06 93 1014.2
20260505230021 54 244 3.0 5.0 0.04 0.28 0.06 93 1014.2
20260505225524 55 245 2.0 5.0 0.12 0.28 0.06 93 1014.2
20260505225027 55 248 0.0 4.0 0.12 0.28 0.06 93 1014.3
20260505224530 55 248 1.0 4.0 0.12 0.28 0.06 92 1014.3
20260505224013 55 248 2.0 4.0 0.12 0.28 0.06 92 1014.3
20260505223536 55 249 2.0 5.0 0.12 0.28 0.06 92 1014.4
20260505223038 55 250 3.0 5.0 0.12 0.28 0.06 92 1014.3
20260505222521 55 250 2.0 4.0 0.08 0.24 0.05 92 1014.3
20260505222024 55 250 1.0 2.0 0.08 0.24 0.05 91 1014.3
20260505221528 55 250 0.0 0.0 0.08 0.24 0.05 91 1014.4
20260505221030 55 250 0.0 0.0 0.08 0.24 0.05 90 1014.3
20260505220511 55 250 0.0 3.0 0.08 0.24 0.05 90 1014.3
20260505220012 55 250 0.0 3.0 0.08 0.24 0.05 90 1014.3
20260505215521 55 250 0.0 2.0 0.00 0.16 0.03 89 1014.3
20260505215029 55 250 1.0 5.0 0.00 0.16 0.03 89 1014.4
20260505214517 55 250 1.0 5.0 0.00 0.16 0.03 89 1014.4
20260505214045 55 252 1.0 5.0 0.00 0.16 0.03 88 1014.4
20260505213512 55 254 1.0 3.0 0.00 0.16 0.03 88 1014.4
20260505213021 55 254 0.0 3.0 0.00 0.16 0.03 88 1014.4
20260505212528 56 254 0.0 4.0 0.00 0.16 0.03 87 1014.4
20260505212016 56 254 2.0 3.0 0.00 0.16 0.03 86 1014.4
20260505211524 56 254 0.0 3.0 0.00 0.16 0.03 86 1014.4
20260505211031 56 254 1.0 3.0 0.00 0.16 0.03 86 1014.4
20260505210519 56 254 0.0 1.0 0.00 0.16 0.03 85 1014.4
20260505210025 56 254 0.0 0.0 0.00 0.51 0.03 84 1014.4
20260505205513 57 254 0.0 0.0 0.00 0.51 0.03 84 1014.4
20260505205022 57 254 0.0 0.0 0.00 0.51 0.03 84 1014.4
20260505204529 57 254 0.0 0.0 0.00 0.51 0.03 84 1014.3
20260505204016 57 254 0.0 4.0 0.00 0.51 0.03 84 1014.4
20260505203523 57 254 0.0 4.0 0.00 0.51 0.03 83 1014.3
20260505203011 57 254 0.0 5.0 0.00 0.51 0.03 83 1014.3
20260505202539 57 254 1.0 5.0 0.00 0.51 0.03 83 1014.2
20260505202026 57 254 0.0 4.0 0.00 0.51 0.03 82 1014.1
20260505201515 57 254 1.0 7.0 0.00 0.51 0.03 82 1014.1
20260505201015 57 254 2.0 7.0 0.00 0.51 0.03 81 1014.1
20260505200523 57 255 1.0 5.0 0.00 0.51 0.03 81 1014.0
20260505200031 58 255 3.0 7.0 0.00 0.59 0.03 80 1014.0
20260505195517 58 258 2.0 8.0 0.00 0.59 0.03 80 1013.9
20260505195046 58 258 6.0 8.0 0.00 0.59 0.03 79 1013.8
20260505194513 58 278 3.0 8.0 0.00 0.59 0.03 79 1013.8
20260505194022 58 266 4.0 8.0 0.00 0.59 0.03 78 1013.7
20260505193510 58 267 3.0 8.0 0.00 0.59 0.03 78 1013.5
20260505193014 58 242 4.0 8.0 0.00 0.59 0.03 78 1013.5
20260505192521 58 254 3.0 9.0 0.00 0.59 0.03 78 1013.4
20260505192029 58 239 4.0 10.0 0.00 0.59 0.03 78 1013.5
20260505191515 58 250 5.0 10.0 0.00 0.59 0.03 78 1013.4
20260505191043 58 269 3.0 8.0 0.00 0.59 0.03 78 1013.5
20260505190510 58 273 3.0 8.0 0.00 0.59 0.03 78 1013.5
20260505190018 59 290 2.0 7.0 0.00 0.67 0.03 77 1013.5
20260505185524 59 290 2.0 9.0 0.00 0.67 0.03 76 1013.4
20260505185011 59 313 4.0 11.0 0.00 0.67 0.03 76 1013.4
20260505184538 59 283 7.0 11.0 0.00 0.67 0.03 75 1013.4
20260505184024 60 278 3.0 10.0 0.00 0.67 0.03 75 1013.4
20260505183512 60 281 5.0 13.0 0.00 0.67 0.03 74 1013.4
20260505183036 60 307 5.0 13.0 0.00 0.67 0.03 74 1013.4
20260505182523 60 281 4.0 10.0 0.00 0.67 0.03 75 1013.4
20260505182011 60 269 3.0 9.0 0.00 0.67 0.03 75 1013.4
20260505181519 60 283 2.0 9.0 0.00 0.67 0.03 76 1013.3
20260505181028 60 304 3.0 10.0 0.00 0.67 0.03 76 1013.4
20260505180515 60 350 5.0 10.0 0.00 0.67 0.03 76 1013.4
20260505180044 59 293 3.0 11.0 0.00 1.22 0.03 77 1013.3
20260505175511 59 288 3.0 11.0 0.00 1.22 0.03 79 1013.3
20260505175018 59 309 3.0 9.0 0.00 1.22 0.03 79 1013.3
20260505174546 59 313 3.0 8.0 0.00 1.22 0.03 79 1013.3
20260505174013 59 283 4.0 13.0 0.00 1.22 0.03 78 1013.3
20260505173521 59 292 4.0 13.0 0.00 1.22 0.03 78 1013.4
20260505173029 59 277 3.0 10.0 0.00 1.22 0.03 78 1013.3
20260505172517 60 323 4.0 10.0 0.00 1.22 0.03 78 1013.4
20260505172025 60 279 4.0 10.0 0.00 1.22 0.03 78 1013.3
20260505171527 60 292 6.0 10.0 0.00 1.22 0.03 77 1013.4
20260505171011 60 302 6.0 12.0 0.00 1.22 0.03 76 1013.4
20260505170519 60 321 4.0 13.0 0.00 1.22 0.03 77 1013.3
20260505170027 60 294 7.0 13.0 0.00 1.22 0.03 76 1013.2
20260505165516 61 306 5.0 11.0 0.00 1.22 0.03 75 1013.3
20260505165018 61 264 6.0 13.0 0.00 1.22 0.03 74 1013.4
20260505164544 62 298 5.0 14.0 0.00 1.22 0.03 74 1013.3
20260505164012 61 263 6.0 14.0 0.00 1.22 0.03 75 1013.3
20260505163520 61 274 8.0 12.0 0.00 1.22 0.03 75 1013.2
20260505163029 62 303 7.0 13.0 0.00 1.22 0.03 75 1013.3
20260505162516 62 316 4.0 10.0 0.00 1.22 0.03 76 1013.2
20260505162024 61 287 4.0 10.0 0.00 1.22 0.03 76 1013.2
20260505161513 60 300 5.0 11.0 0.00 1.22 0.03 76 1013.2
20260505161021 61 268 8.0 13.0 0.00 1.22 0.03 75 1013.2
20260505160510 61 320 7.0 13.0 0.00 1.22 0.03 74 1013.1
20260505153013 61 300 7.0 14.0 0.00 1.22 0.03 76 1013.0
20260505152535 61 300 7.0 14.0 0.00 1.22 0.03 78 1013.0
20260505152020 60 280 6.0 14.0 0.00 1.22 0.03 77 1013.0
20260505151522 61 275 7.0 14.0 0.00 1.22 0.03 76 1013.1
20260505151030 61 288 6.0 14.0 0.00 1.22 0.03 75 1013.0
20260505150535 62 275 8.0 14.0 0.00 1.22 0.03 73 1013.0
20260505140518 63 298 6.0 15.0 0.00 1.22 0.03 69 1013.2
20260505125016 62 288 9.0 14.0 0.00 1.22 0.03 63 1012.7
20260505124523 62 282 7.0 16.0 0.00 1.22 0.03 66 1012.8
20260505124010 62 332 7.0 15.0 0.00 1.22 0.03 65 1012.8
20260505123518 62 306 6.0 15.0 0.00 1.22 0.03 65 1012.8
20260505123026 62 278 6.0 16.0 0.00 1.22 0.03 67 1012.8
20260505122514 61 259 8.0 17.0 0.00 1.22 0.03 69 1012.8
20260505122021 61 261 8.0 17.0 0.00 1.22 0.03 69 1012.9
20260505121510 61 285 7.0 11.0 0.00 1.22 0.03 71 1012.8
20260505121016 61 267 4.0 13.0 0.00 1.22 0.03 72 1012.8
20260505120525 61 284 6.0 16.0 0.00 1.22 0.03 71 1012.7
20260505120013 62 266 8.0 16.0 0.00 1.22 0.03 68 1012.8
20260505115522 62 267 3.0 11.0 0.00 1.22 0.03 71 1012.7
20260505115029 62 245 6.0 11.0 0.00 1.22 0.03 70 1012.7
20260505114516 61 260 6.0 16.0 0.00 1.22 0.03 70 1012.7
20260505114021 61 279 10.0 18.0 0.00 1.22 0.03 68 1012.8
20260505113529 61 257 9.0 18.0 0.00 1.22 0.03 71 1012.8
20260505113017 60 271 8.0 16.0 0.00 1.22 0.03 72 1012.8
20260505112519 60 267 7.0 13.0 0.00 1.22 0.03 71 1012.8
20260505112028 60 257 6.0 12.0 0.00 1.22 0.03 71 1012.9
20260505111532 60 279 6.0 12.0 0.00 1.22 0.03 71 1012.8
20260505111019 60 265 7.0 12.0 0.00 1.22 0.03 72 1012.8
20260505110527 60 253 6.0 12.0 0.00 1.22 0.03 73 1012.9
20260505102029 57 250 4.0 8.0 0.04 1.22 0.03 80 1013.0
20260505101537 57 274 3.0 11.0 0.04 1.22 0.03 80 1013.1
20260505101024 57 254 3.0 8.0 0.04 1.22 0.03 82 1013.1
20260505100511 56 258 4.0 8.0 0.04 1.22 0.03 83 1013.0
20260505100018 56 256 0.0 7.0 0.04 1.22 0.03 84 1013.0
20260505095521 56 256 2.0 8.0 0.08 1.22 0.03 83 1013.1
20260505095024 56 257 5.0 8.0 0.12 1.22 0.03 83 1013.1
20260505094544 56 238 4.0 8.0 0.12 1.22 0.03 84 1013.1
20260505094047 56 229 4.0 9.0 0.12 1.22 0.03 85 1013.2
20260505093530 56 263 2.0 4.0 0.08 1.18 0.02 85 1013.2
20260505093014 55 263 2.0 4.0 0.08 1.18 0.02 85 1013.1
20260505092515 55 264 0.0 3.0 0.08 1.18 0.02 86 1013.0
20260505092017 55 264 0.0 6.0 0.08 1.18 0.02 85 1013.0
20260505091519 55 264 3.0 6.0 0.08 1.18 0.02 85 1013.0
20260505091044 55 264 2.0 4.0 0.08 1.18 0.02 86 1013.1
20260505090545 55 264 1.0 6.0 0.08 1.18 0.02 86 1013.1
20260505090029 55 264 0.0 11.0 0.08 1.18 0.02 85 1013.1
20260505085516 55 264 2.0 14.0 0.04 1.14 0.02 84 1013.2
20260505085023 55 236 6.0 14.0 0.00 1.10 0.01 86 1013.3
20260505084529 55 219 0.0 1.0 0.00 1.10 0.01 87 1013.1
20260505084018 55 219 0.0 3.0 0.00 1.10 0.01 86 1013.1
20260505083526 55 219 1.0 3.0 0.00 1.10 0.01 86 1013.1
20260505083015 54 219 0.0 5.0 0.00 1.10 0.01 87 1013.1
20260505082523 54 219 1.0 5.0 0.00 1.10 0.01 87 1013.0
20260505082051 54 219 2.0 4.0 0.00 1.10 0.01 88 1013.1
20260505081537 54 219 1.0 5.0 0.00 1.10 0.01 88 1013.0
20260505081044 54 219 0.0 5.0 0.00 1.10 0.01 89 1013.0
20260505080511 53 219 2.0 4.0 0.00 1.10 0.01 89 1013.0
20260505080018 53 219 1.0 6.0 0.00 1.10 0.01 90 1013.0
20260505075520 53 219 3.0 6.0 0.00 1.10 0.01 91 1013.0
20260505075022 53 224 3.0 4.0 0.00 1.10 0.01 91 1012.9
20260505074525 53 224 1.0 4.0 0.00 1.10 0.01 92 1012.8
20260505074023 53 224 0.0 3.0 0.00 1.10 0.01 92 1012.9
20260505073526 52 224 1.0 3.0 0.00 1.10 0.01 93 1012.9
20260505073027 52 224 2.0 3.0 0.00 1.10 0.01 93 1012.9
20260505072530 52 224 1.0 5.0 0.00 1.10 0.01 94 1012.9
20260505072012 52 224 1.0 5.0 0.00 1.10 0.01 95 1012.8
20260505071515 52 226 2.0 5.0 0.00 1.10 0.01 95 1012.8
20260505071015 52 226 1.0 4.0 0.00 1.10 0.01 95 1012.8
20260505070516 52 226 1.0 4.0 0.00 1.10 0.01 96 1012.7
20260505070019 52 227 1.0 4.0 0.00 1.10 0.01 96 1012.7
20260505065527 51 226 1.0 5.0 0.00 1.10 0.01 96 1012.7
20260505065011 51 227 0.0 3.0 0.00 1.10 0.01 97 1012.6
20260505064517 51 226 1.0 3.0 0.00 1.10 0.01 97 1012.6
20260505064026 51 226 0.0 4.0 0.00 1.10 0.01 98 1012.6
20260505063514 51 227 2.0 4.0 0.00 1.10 0.01 98 1012.6
20260505063022 51 227 0.0 3.0 0.00 1.10 0.01 98 1012.6
20260505062510 51 227 0.0 4.0 0.00 1.10 0.01 98 1012.6
20260505062037 51 227 0.0 5.0 0.00 1.10 0.01 98 1012.6
20260505061540 51 227 2.0 5.0 0.00 1.10 0.01 99 1012.6
20260505061027 50 244 2.0 4.0 0.00 1.10 0.01 99 1012.5
20260505060515 50 244 2.0 5.0 0.00 1.10 0.01 99 1012.7
20260505060043 50 244 1.0 5.0 0.00 1.10 0.01 99 1012.6
20260505055530 50 245 2.0 5.0 0.00 1.10 0.01 99 1012.6
20260505055018 50 252 0.0 3.0 0.00 1.10 0.01 99 1012.5
20260505054526 50 252 0.0 2.0 0.00 1.10 0.01 100 1012.5
20260505054010 50 252 1.0 2.0 0.00 1.10 0.01 100 1012.4
20260505053518 50 252 0.0 0.0 0.00 1.10 0.01 100 1012.5
20260505053047 50 252 0.0 0.0 0.00 1.10 0.01 100 1012.4
20260505052514 50 252 0.0 0.0 0.00 1.10 0.01 100 1012.4
20260505052023 50 252 0.0 0.0 0.00 1.10 0.01 100 1012.4
20260505051511 50 252 0.0 4.0 0.00 1.10 0.01 100 1012.4
20260505051039 50 252 1.0 4.0 0.00 1.10 0.01 100 1012.4
20260505050525 50 253 0.0 4.0 0.00 1.10 0.01 100 1012.3
20260505041523 49 274 0.0 0.0 0.00 1.10 0.01 100 1012.4
20260505041011 49 274 0.0 0.0 0.00 1.10 0.01 100 1012.4
20260505040520 49 274 0.0 0.0 0.04 1.10 0.01 100 1012.5
20260505040028 49 274 0.0 0.0 0.04 1.10 0.01 100 1012.5
20260505035517 49 274 0.0 0.0 0.04 1.10 0.01 100 1012.6
20260505035045 49 274 0.0 0.0 0.04 1.10 0.01 100 1012.5
20260505034529 49 274 0.0 0.0 0.04 1.10 0.01 100 1012.6
20260505034036 49 274 0.0 0.0 0.04 1.10 0.01 100 1012.6
20260505033522 49 274 0.0 0.0 0.04 1.10 0.01 100 1012.6
20260505033014 49 274 0.0 0.0 0.04 1.10 0.01 100 1012.5
20260505032522 49 274 0.0 0.0 0.04 1.10 0.01 100 1012.6
20260505032029 49 274 0.0 0.0 0.04 1.10 0.01 100 1012.6
20260505031517 49 274 0.0 0.0 0.04 1.10 0.01 100 1012.6
20260505031026 49 274 0.0 0.0 0.04 1.10 0.01 100 1012.7
20260505030514 49 274 0.0 0.0 0.00 1.06 0.00 100 1012.6
20260505030042 49 274 0.0 0.0 0.00 1.06 0.00 99 1012.7
20260505025549 49 274 0.0 0.0 0.00 1.06 0.00 99 1012.7
20260505025014 49 274 0.0 0.0 0.00 1.06 0.00 99 1012.7
20260505024545 49 274 0.0 0.0 0.00 1.06 0.00 99 1012.7
20260505024012 49 274 0.0 0.0 0.00 1.06 0.00 99 1012.7